Temp
14 14 14 14 14 14 14 15 15 15 15 15 15 16 15 15 15 15 15 15 15 15 15 15 15 15 15 16 15 14 15 15 15 15 15 15 15 15 15 15 15 15
14 14 14 14 14 14 14 14 15 15 15 15 15 15 15 15 15 15 15 15 15 15 15 15 15 15 15 15 15 15 15 15 15 15 15 15 15 15 15 14 14 14
14 14 14 14 14 14 14 14 15 15 15 15 15 15 15 15 15 15 14 14 15 15 15 15 15 15 15 15 15 15 15 15 15 15 15 15 15 15 15 14 14 14
14 14 14 14 14 14 14 14 14 15 14 15 15 15 15 15 15 14 14 14 15 15 15 15 15 15 15 15 15 15 15 15 15 15 15 15 15 15 15 14 14 14
13 14 14 14 14 14 14 14 14 14 14 14 15 15 15 15 14 14 14 14 15 15 15 15 15 15 15 15 15 15 15 15 15 15 14 14 14 15 15 15 14 14
13 13 14 14 14 14 14 14 14 14 14 14 15 14 14 14 14 14 15 15 15 15 15 15 15 15 15 15 15 14 14 15 15 14 14 14 14 14 15 15 14 14
13 13 14 14 14 14 14 14 14 14 14 14 14 14 14 14 14 14 15 15 15 15 15 15 15 15 15 15 15 14 14 14 15 14 14 14 14 14 14 14 15 15
12 13 13 14 14 14 14 14 14 14 14 14 14 14 14 14 14 14 15 15 15 15 15 15 15 16 16 15 15 14 14 14 14 14 14 14 14 14 14 14 15 15
11 12 13 13 14 14 13 13 14 14 14 14 14 14 14 14 14 15 15 15 15 15 15 15 15 16 16 16 15 14 14 14 14 14 14 14 14 14 14 14 14 14
10 11 12 13 13 13 13 13 14 14 14 14 14 14 14 14 14 15 15 15 15 15 15 15 15 15 16 16 15 15 14 14 14 14 14 14 14 14 14 14 14 14
9 10 11 12 13 13 13 13 13 13 13 13 14 14 14 14 14 15 15 15 15 15 15 15 15 15 16 16 16 15 14 14 14 14 14 14 14 14 14 14 14 14
9 9 10 11 12 13 13 13 13 13 13 13 14 14 14 14 14 14 15 15 15 15 15 15 16 16 16 16 16 16 15 14 14 14 14 14 14 14 14 14 14 14
8 8 9 10 11 12 13 13 13 13 13 13 14 14 14 14 14 14 14 15 15 16 16 15 16 16 16 16 16 16 15 15 14 14 14 14 14 14 14 14 14 14
7 8 8 9 11 12 12 13 13 13 13 13 13 14 14 14 14 14 14 15 15 16 16 15 15 16 16 16 16 16 16 15 14 14 14 14 14 14 14 14 14 14
7 7 7 8 10 11 12 12 13 13 13 13 13 13 14 13 13 14 14 14 15 15 16 15 15 16 16 16 16 16 16 15 15 14 14 14 14 14 14 14 14 14
6 7 7 7 8 10 11 12 12 13 13 13 13 13 13 13 13 13 14 14 15 16 16 15 16 17 17 17 16 16 16 15 14 14 14 14 14 14 14 14 14 14
6 6 7 7 7 9 10 11 12 12 13 13 13 13 13 13 13 13 14 14 15 16 16 16 16 17 17 17 16 17 16 15 14 14 14 14 14 14 13 14 14 14
6 6 6 6 6 7 8 9 10 11 12 12 12 13 13 13 13 13 13 14 15 15 15 15 16 16 17 17 17 17 16 16 15 14 14 14 14 14 14 14 14 14
5 6 6 6 6 6 7 8 9 10 10 11 11 12 12 12 13 13 13 14 14 15 15 15 15 16 16 17 17 17 17 16 15 15 14 14 14 14 14 14 14 13
5 5 5 5 5 5 6 7 8 8 8 9 9 10 10 10 11 11 12 13 13 14 14 14 14 15 16 17 17 17 17 16 16 16 15 14 14 14 14 14 14 14
5 5 5 5 5 5 5 5 6 7 7 8 8 8 8 8 9 9 10 11 11 12 13 14 14 14 15 16 17 17 16 16 16 16 15 15 15 15 15 15 15 15
5 5 5 5 5 5 5 5 5 5 6 7 7 7 7 7 7 8 8 9 10 10 11 12 13 14 14 15 16 16 16 16 16 16 15 15 15 15 15 15 15 15
5 5 5 5 5 5 5 5 5 5 5 6 6 7 7 7 6 6 6 7 8 8 9 10 11 13 14 14 15 16 16 16 16 15 14 14 14 14 14 14 14 14
5 5 5 5 5 5 5 4 4 4 4 5 6 6 6 6 6 6 6 6 6 6 7 8 9 10 12 13 14 15 16 16 16 14 13 13 12 12 13 13 13 13
5 5 5 5 5 5 5 5 4 4 4 4 5 5 5 5 6 6 6 6 5 5 5 6 7 7 9 11 12 12 14 15 15 14 13 12 11 11 11 11 12 12
5 5 5 5 5 5 5 5 5 4 4 4 4 4 5 5 5 5 5 5 5 5 5 5 5 5 7 9 10 11 12 13 14 13 12 11 10 10 10 9 10 10
Height
803 802 802 801 801 801 802 803 802 802 803 805 805 805 805 805 805 804 804 806 809 812 815 817 818 820 821 822 824 826 827 828 829 830 830 831 832 833 834 836 837 838
803 801 800 800 800 800 799 798 797 798 799 802 804 804 804 804 804 804 804 805 807 810 813 815 816 819 821 822 823 825 825 826 827 828 829 829 830 831 833 834 835 835
802 801 799 799 798 797 796 795 794 794 796 799 801 803 803 802 802 802 803 804 806 808 811 813 815 817 819 821 823 823 824 825 826 826 827 828 829 830 831 832 833 833
801 800 799 797 796 795 796 795 794 794 795 798 799 801 801 800 800 800 801 802 803 805 808 811 813 815 817 819 820 821 823 824 824 824 825 825 827 828 829 830 830 831
800 799 798 797 795 793 793 794 793 793 794 796 798 799 799 799 798 798 799 800 801 803 807 809 811 813 814 815 816 817 819 821 821 821 822 823 824 825 827 828 828 829
798 797 797 796 794 793 792 791 791 791 792 794 795 797 798 797 796 796 797 797 799 802 805 807 809 810 811 812 813 815 817 818 818 818 819 820 821 823 824 826 826 827
796 795 795 794 794 793 791 790 790 790 791 792 793 794 796 796 795 795 795 796 798 801 804 805 805 806 808 809 810 812 814 815 816 816 817 818 819 820 822 823 824 825
795 794 793 793 792 792 791 790 789 789 789 790 791 793 794 794 794 793 793 794 796 800 802 803 802 802 803 805 806 808 811 812 814 814 815 816 817 818 819 821 822 824
795 793 792 791 791 790 789 788 787 787 788 789 790 791 792 792 792 792 791 792 794 799 801 801 801 800 800 801 802 805 808 810 811 812 813 814 815 816 817 819 820 822
794 793 791 790 789 788 787 786 786 786 786 787 788 789 790 790 790 791 790 790 792 797 799 799 800 799 799 799 800 803 806 808 809 810 811 812 813 814 816 817 818 820
794 792 790 789 788 786 785 784 784 784 785 785 786 787 788 788 788 789 789 789 791 794 796 797 798 799 799 799 800 802 804 806 808 809 810 811 812 813 814 815 817 818
795 792 790 788 787 785 784 783 782 783 783 783 784 786 787 787 786 788 789 789 790 792 794 795 796 797 798 798 799 800 802 805 807 808 809 810 811 812 813 814 816 817
795 792 790 788 786 784 783 782 782 782 781 782 783 784 785 785 785 787 788 788 789 790 792 793 794 795 795 796 797 798 800 802 805 806 807 808 809 810 811 813 815 816
796 793 790 788 786 784 782 781 781 781 781 782 783 783 784 784 784 786 787 788 789 789 790 791 792 792 793 794 795 795 797 800 802 804 805 806 808 809 810 812 813 813
797 794 791 788 786 784 782 781 781 781 781 782 783 783 783 784 784 785 786 787 788 788 789 790 791 790 791 792 793 794 795 798 800 802 804 805 806 807 809 810 811 811
799 795 791 788 786 784 783 782 782 782 782 782 782 782 783 783 784 785 786 786 787 787 788 789 788 788 789 790 791 793 794 796 799 800 802 803 804 806 807 808 810 810
800 796 793 789 787 785 783 782 782 782 782 782 781 781 782 783 783 784 785 786 786 786 786 787 786 786 787 788 790 791 793 795 797 799 800 802 803 804 805 806 808 809
802 798 795 791 788 786 784 783 782 781 781 781 780 781 781 782 783 784 784 785 785 785 785 785 785 785 785 787 788 790 791 793 795 797 799 800 801 802 803 804 806 807
805 801 797 794 791 788 786 784 782 781 781 781 781 782 782 782 783 783 783 784 784 784 784 784 784 784 784 785 787 789 790 792 794 795 797 798 799 801 802 803 804 805
808 804 801 798 795 792 789 787 785 784 783 783 782 782 782 782 782 782 782 783 783 783 783 783 784 784 784 784 786 787 789 791 792 793 795 796 797 799 800 801 802 803
811 808 805 802 799 796 793 791 789 788 786 785 784 784 783 783 783 783 783 782 782 782 782 782 783 783 783 783 784 786 787 789 790 791 793 794 795 796 797 799 800 801
814 811 808 805 803 800 798 795 793 791 790 788 787 786 786 785 784 784 784 783 783 783 782 782 782 782 782 782 783 785 786 788 789 790 791 792 792 794 795 797 798 799
817 814 811 809 806 804 802 800 798 796 794 792 790 788 788 787 787 786 786 785 784 784 783 783 782 782 782 782 782 783 785 786 787 788 789 790 791 792 793 795 796 798
819 817 815 812 810 808 806 804 802 800 798 796 794 791 790 790 790 789 788 787 786 786 785 784 783 783 782 781 782 783 784 785 785 786 788 789 790 791 792 794 795 796
822 820 818 816 814 812 810 808 806 805 803 801 798 796 794 794 793 792 791 790 789 789 787 785 784 785 784 782 782 783 783 784 783 784 786 788 790 791 792 793 794 795
825 823 821 819 818 816 814 812 811 809 807 805 803 801 799 798 797 795 794 793 792 791 790 788 787 788 786 783 782 782 783 784 783 783 785 787 789 791 792 793 794 795
Wind_Speed
12 13 12 12 14 17 19 18 16 15 14 14 13 11 10 13 15 14 14 16 17 17 15 14 17 18 17 16 15 15 14 14 14 13 13 15 14 14 17 18 18 17
12 13 13 12 12 13 15 17 19 18 14 13 14 11 9 13 16 16 16 16 16 16 15 15 17 15 14 15 15 13 11 12 13 13 14 16 15 14 16 17 18 18
9 11 12 13 14 15 16 18 21 22 19 15 14 12 11 14 17 17 16 15 15 14 14 15 15 14 13 14 13 12 11 11 13 14 15 17 16 14 15 15 16 15
10 10 11 11 13 15 17 18 19 21 20 16 13 12 13 15 16 16 15 15 15 15 14 14 14 14 14 14 14 14 14 14 14 14 15 16 15 14 13 14 14 14
13 12 12 11 12 14 16 17 18 19 18 16 14 13 14 15 15 15 14 14 15 15 14 14 15 16 16 14 13 14 16 17 15 14 14 14 14 12 12 12 14 15
15 13 12 12 13 14 16 17 17 18 18 16 14 13 13 14 14 13 14 14 13 13 14 13 15 16 15 13 12 13 16 16 13 13 13 13 12 11 11 11 12 13
17 15 13 12 13 14 16 18 18 18 17 16 15 13 12 13 13 12 12 13 12 13 13 13 14 14 13 11 11 12 13 13 12 12 12 12 11 11 11 11 12 13
18 15 13 13 13 14 15 17 17 16 16 15 15 14 12 12 13 12 12 12 12 13 14 13 13 14 12 12 11 12 12 11 11 12 12 11 11 11 11 11 13 14
19 17 13 12 13 14 15 16 16 15 14 15 15 13 11 11 12 12 12 12 12 13 14 12 12 12 12 11 12 12 11 11 12 12 13 12 12 12 12 12 14 14
20 18 15 12 13 14 15 15 16 15 14 15 15 12 10 11 11 11 12 12 12 13 13 11 11 11 11 11 11 11 11 11 11 12 13 13 12 12 12 12 14 14
21 20 18 16 13 14 15 15 16 16 16 15 14 12 11 10 10 11 12 12 12 13 12 12 12 12 12 11 11 11 11 10 10 11 12 12 12 12 12 13 13 14
21 22 21 20 16 13 15 16 15 15 15 14 12 12 11 10 10 11 12 13 13 13 12 12 12 12 11 10 10 11 11 9 9 10 10 11 12 11 12 12 13 13
21 21 21 21 20 16 13 14 13 12 12 12 12 11 11 10 11 12 13 13 14 15 14 13 12 12 11 10 9 10 10 10 9 9 9 10 11 11 11 11 12 13
22 21 21 21 22 19 14 11 12 12 11 12 13 11 9 10 11 13 14 14 14 16 15 12 12 12 11 10 10 9 9 10 10 10 10 10 10 10 10 10 13 16
22 22 23 23 23 21 18 14 12 12 11 11 12 10 9 9 9 12 16 15 14 14 13 11 12 13 11 10 10 9 9 9 9 10 9 10 10 10 10 11 13 16
23 24 25 25 25 23 20 17 12 10 9 10 10 9 9 9 8 11 15 16 16 16 15 14 14 13 11 10 10 9 9 8 8 8 9 9 9 10 10 11 12 13
24 26 26 26 27 27 23 20 15 10 8 9 10 10 11 11 10 11 14 16 17 16 16 17 15 12 10 10 10 10 9 8 7 8 9 8 9 10 10 11 11 11
25 26 27 27 28 29 26 22 18 13 10 8 8 9 10 11 11 11 14 15 15 14 15 17 15 12 11 10 10 10 10 10 9 8 9 9 9 9 10 10 10 11
24 25 27 27 27 29 29 26 23 18 14 10 7 6 6 7 8 10 12 13 13 13 14 15 14 13 12 11 11 12 11 11 11 11 10 10 10 10 10 10 10 10
23 24 25 25 25 27 28 28 26 22 18 14 10 7 5 4 3 5 7 9 10 11 12 13 14 14 13 12 12 13 13 13 14 14 13 11 11 11 11 12 11 11
23 23 23 23 22 23 24 24 24 24 21 17 15 14 12 10 8 6 4 4 5 6 9 12 13 14 14 14 15 15 15 15 16 17 16 14 14 14 14 14 14 13
22 22 22 23 22 21 21 20 21 23 22 19 17 16 15 13 11 10 8 5 3 2 4 8 12 13 14 15 16 16 16 17 18 18 18 17 17 17 17 16 15 15
21 21 21 22 22 22 21 20 19 19 20 20 18 17 17 16 14 13 12 10 7 4 2 3 7 10 12 14 15 17 18 18 18 17 17 18 18 18 18 18 17 17
19 20 20 21 22 22 21 20 18 17 17 19 20 20 19 18 16 14 13 13 12 10 7 3 2 5 9 13 14 17 19 18 18 18 18 17 17 17 18 19 19 18
18 19 20 21 21 21 20 19 19 17 16 17 20 23 23 21 19 18 17 16 15 14 12 9 6 1 6 11 14 16 18 19 19 20 19 18 17 17 17 17 17 17
18 19 20 20 20 20 19 19 17 17 17 17 18 21 24 25 25 25 25 23 19 17 15 13 12 7 1 8 12 14 17 19 20 22 21 20 18 16 15 14 14 15
Wind_Direction
307 301 293 271 256 259 261 261 264 267 268 264 253 238 226 233 234 222 208 198 198 209 210 213 228 231 225 227 230 228 225 223 224 225 227 228 227 224 226 226 220 217
313 305 295 281 268 264 261 258 258 256 257 259 255 243 230 233 233 225 212 201 202 209 209 218 233 230 218 221 227 226 224 223 224 226 229 231 230 226 224 223 223 223
312 299 288 281 274 268 261 258 260 257 252 251 252 245 236 234 233 230 221 206 202 207 211 219 230 229 222 226 232 231 228 226 225 226 230 232 231 228 222 220 221 219
316 299 286 276 268 265 262 259 260 257 249 247 250 243 233 231 229 228 223 207 203 209 211 215 225 228 228 231 236 239 239 236 231 228 229 230 230 228 224 221 221 220
321 307 296 285 270 262 259 252 250 251 247 245 249 240 229 224 219 219 215 204 202 208 211 216 224 229 234 237 233 230 233 234 232 229 228 227 227 225 222 220 223 226
325 311 298 290 276 263 258 251 249 251 248 246 247 239 228 222 214 210 205 198 196 202 207 211 218 225 232 234 224 216 223 228 226 223 224 224 222 219 216 215 220 226
333 317 297 287 278 267 260 255 252 250 248 251 249 237 228 223 215 206 201 196 195 201 205 206 214 223 223 220 217 214 217 223 222 217 217 219 216 213 211 211 217 222
341 329 307 288 278 272 265 258 254 251 250 251 247 237 230 225 216 208 200 193 195 204 207 205 214 227 223 211 210 212 213 219 221 217 215 214 213 213 211 211 219 221
345 340 327 302 283 275 271 264 258 254 249 246 243 239 233 225 218 211 201 193 197 208 209 202 206 222 227 216 208 209 214 219 219 217 216 215 214 214 212 212 217 216
348 348 343 325 300 284 276 271 265 258 254 251 249 244 236 228 221 216 208 198 199 207 207 199 198 203 211 213 209 209 213 216 217 215 216 218 218 218 215 212 214 213
353 354 352 345 324 295 279 277 275 268 262 259 256 249 242 235 227 221 215 206 203 204 201 199 199 197 199 204 207 208 209 212 216 216 217 220 221 219 215 211 213 213
356 358 357 356 347 319 289 281 282 278 272 267 259 252 247 241 233 227 220 213 208 203 198 197 200 200 201 202 203 207 210 211 216 219 221 223 223 219 215 214 214 214
354 357 357 358 360 349 313 285 278 282 283 275 263 255 251 246 240 232 226 221 214 206 198 193 194 197 200 201 201 207 212 212 216 222 225 225 225 221 217 216 216 217
352 354 356 359 5 5 351 317 295 296 301 287 273 266 260 255 247 237 233 229 220 211 202 194 192 194 196 200 202 205 209 213 219 224 226 227 225 224 222 220 222 225
355 356 358 1 7 10 9 357 327 310 307 294 282 279 273 264 253 244 239 231 220 213 205 198 199 201 201 203 204 207 209 212 218 223 225 226 225 224 222 218 222 227
360 1 1 2 7 11 12 10 353 325 308 297 291 295 290 277 262 252 244 231 220 217 213 209 208 209 209 208 207 210 210 206 211 217 218 221 222 220 220 216 215 222
4 4 5 4 7 11 14 14 10 356 335 319 313 310 302 290 278 262 246 231 224 223 221 218 215 212 210 208 208 212 214 208 209 216 216 217 216 215 215 214 210 210
6 6 8 8 9 11 14 16 18 18 10 350 331 320 307 296 284 266 249 236 227 223 223 221 219 216 211 209 210 214 219 219 214 212 213 214 212 210 209 208 205 203
8 9 10 10 11 14 17 18 19 21 21 17 2 335 315 296 278 261 251 243 230 221 222 223 222 218 213 212 214 217 225 229 223 215 211 209 208 206 203 201 198 197
9 11 12 11 12 16 20 21 22 22 23 24 23 14 6 357 322 277 258 250 238 227 224 224 223 221 218 218 221 224 229 234 233 228 219 209 206 205 204 205 203 198
11 13 13 13 13 14 18 22 24 26 26 24 25 28 31 32 28 13 338 294 265 244 234 231 230 227 223 224 226 229 231 232 234 233 225 216 215 215 214 215 212 206
15 15 15 16 15 17 19 20 23 29 31 29 28 31 33 34 33 30 22 12 346 283 252 244 240 234 228 227 227 226 226 228 230 228 222 218 217 215 214 212 209 205
19 19 19 19 19 21 22 21 22 27 32 35 36 36 38 38 38 38 37 39 43 39 5 280 255 237 225 223 222 219 219 221 218 213 210 210 208 205 203 202 200 200
23 24 25 24 25 25 25 25 26 27 32 41 46 48 48 46 45 44 42 42 44 44 45 38 307 238 213 207 208 209 211 211 206 199 196 196 194 192 191 193 195 195
27 30 31 31 30 29 28 28 30 32 36 44 52 57 58 56 53 52 49 44 40 40 45 51 43 2 204 195 195 198 199 200 196 189 184 181 178 178 178 181 186 187
36 36 37 37 36 35 35 33 31 34 39 43 50 57 60 59 57 57 55 52 48 45 44 45 42 35 140 184 187 189 189 191 188 181 174 167 162 161 159 159 165 170